Location: South Troy
(42.7009°N, 73.6726°W)
Time: 15:37:35
(UTC+00:00)

Resurs 1-3 - Pass Details

Date: 20 September 2024
Orbit: 619 x 621 km, 97.7° (Epoch: 09 October)

Event Time Altitude Azimuth Distance (km) Brightness Sun altitude
Rises 23:46:33 0° 159° (SSE) 2,885 6.7 -10.3°
Reaches altitude 10° 23:48:44 10° 156° (SSE) 1,983 5.8 -10.7°
Maximum altitude 23:53:01 66° 74° (ENE) 680 3.5 -11.5°
Drops below altitude 10° 23:57:19 10° 353° (N) 1,997 6.4 -12.3°
Sets 23:59:31 0° 351° (N) 2,907 7.3 -12.7°
